Hourly Weather Kizlyar

Today, 25 July, Sunday

Time Temperature Precipitation Wind Pressure Humidity
00:00 +24°C° 0 mm 1 mps 745 mmHg 70%
01:00 +24°C° 0 mm 1 mps 745 mmHg 69%
02:00 +24°C° 0 mm 1 mps 745 mmHg 69%
03:00 +24°C° 0 mm 1 mps 745 mmHg 69%
04:00 +24°C° 0 mm 1 mps 746 mmHg 70%
05:00 +24°C° 0 mm 1 mps 746 mmHg 72%
06:00 +24°C° 0 mm 1 mps 746 mmHg 73%
07:00 +25°C° 0.1 mm 2 mps 746 mmHg 69%
08:00 +26°C° 0.1 mm 2 mps 746 mmHg 65%
09:00 +27°C° 0 mm 3 mps 747 mmHg 58%
10:00 +29°C° 0 mm 4 mps 747 mmHg 52%
11:00 +30°C° 0 mm 5 mps 747 mmHg 46%
12:00 +32°C° 0 mm 5 mps 747 mmHg 40%
13:00 +33°C° 0 mm 5 mps 747 mmHg 39%
14:00 +33°C° 0 mm 5 mps 746 mmHg 37%
15:00 +34°C° 0 mm 4 mps 746 mmHg 35%
16:00 +33°C° 0 mm 4 mps 746 mmHg 38%
17:00 +31°C° 0 mm 3 mps 746 mmHg 41%
18:00 +30°C° 0 mm 3 mps 746 mmHg 43%
19:00 +29°C° 0 mm 3 mps 747 mmHg 46%
20:00 +28°C° 0 mm 3 mps 747 mmHg 49%
21:00 +28°C° 0 mm 3 mps 747 mmHg 52%
22:00 +27°C° 0 mm 2 mps 747 mmHg 54%
23:00 +26°C° 0 mm 2 mps 747 mmHg 56%

Tomorrow, 26 July, Monday

Time Temperature Precipitation Wind Pressure Humidity
00:00 +25°C° 0 mm 2 mps 747 mmHg 58%
01:00 +24°C° 0 mm 2 mps 747 mmHg 60%
02:00 +24°C° 0 mm 2 mps 747 mmHg 63%
03:00 +23°C° 0 mm 2 mps 747 mmHg 66%
04:00 +23°C° 0 mm 2 mps 747 mmHg 66%
05:00 +23°C° 0 mm 2 mps 748 mmHg 66%
06:00 +24°C° 0 mm 2 mps 748 mmHg 66%
07:00 +25°C° 0.1 mm 2 mps 748 mmHg 59%
08:00 +27°C° 0.1 mm 3 mps 748 mmHg 51%
09:00 +29°C° 0.1 mm 4 mps 748 mmHg 44%
10:00 +30°C° 0 mm 4 mps 747 mmHg 42%
11:00 +33°C° 0 mm 4 mps 747 mmHg 40%
12:00 +34°C° 0 mm 5 mps 747 mmHg 38%
13:00 +34°C° 0 mm 5 mps 746 mmHg 38%
14:00 +34°C° 0 mm 5 mps 746 mmHg 37%
15:00 +35°C° 0 mm 6 mps 746 mmHg 37%
16:00 +34°C° 0 mm 6 mps 746 mmHg 39%
17:00 +33°C° 0 mm 6 mps 746 mmHg 42%
18:00 +32°C° 0 mm 5 mps 746 mmHg 44%
19:00 +30°C° 0 mm 6 mps 746 mmHg 46%
20:00 +29°C° 0 mm 7 mps 747 mmHg 48%
21:00 +28°C° 0 mm 7 mps 747 mmHg 49%
22:00 +27°C° 0.1 mm 6 mps 747 mmHg 56%
23:00 +26°C° 0.1 mm 5 mps 747 mmHg 62%

Day after tomorrow, 27 July, Tuesday

Time Temperature Precipitation Wind Pressure Humidity
00:00 +25°C° 0.1 mm 4 mps 747 mmHg 68%
01:00 +25°C° 0 mm 3 mps 747 mmHg 69%
02:00 +25°C° 0 mm 2 mps 747 mmHg 70%
03:00 +24°C° 0 mm 1 mps 747 mmHg 71%
04:00 +24°C° 0.1 mm 2 mps 747 mmHg 72%
05:00 +24°C° 0.1 mm 2 mps 747 mmHg 73%
06:00 +24°C° 0.1 mm 2 mps 747 mmHg 74%
07:00 +24°C° 0 mm 3 mps 747 mmHg 73%
08:00 +25°C° 0 mm 4 mps 747 mmHg 72%
09:00 +25°C° 0 mm 5 mps 747 mmHg 70%
10:00 +26°C° 0.1 mm 5 mps 747 mmHg 67%
11:00 +26°C° 0.1 mm 5 mps 747 mmHg 64%
12:00 +26°C° 0.1 mm 5 mps 747 mmHg 61%
13:00 +26°C° 0.4 mm 5 mps 747 mmHg 62%
14:00 +25°C° 0.4 mm 5 mps 747 mmHg 63%
15:00 +25°C° 0.4 mm 4 mps 747 mmHg 65%
16:00 +23°C° 0.1 mm 4 mps 747 mmHg 64%
17:00 +23°C° 0.1 mm 4 mps 747 mmHg 64%
18:00 +23°C° 0.1 mm 4 mps 748 mmHg 63%
19:00 +22°C° 0.2 mm 4 mps 748 mmHg 68%
20:00 +21°C° 0.2 mm 4 mps 749 mmHg 72%
21:00 +20°C° 0.2 mm 4 mps 749 mmHg 76%
22:00 +19°C° 0.6 mm 3 mps 749 mmHg 80%
23:00 +18°C° 0.6 mm 3 mps 749 mmHg 84%

28 July, Wednesday

Time Temperature Precipitation Wind Pressure Humidity
00:00 +18°C° 0.6 mm 2 mps 749 mmHg 88%
01:00 +19°C° 1.4 mm 1 mps 749 mmHg 89%
02:00 +19°C° 1.4 mm 1 mps 750 mmHg 91%
03:00 +18°C° 1.4 mm 1 mps 750 mmHg 92%
04:00 +18°C° 0.3 mm 1 mps 750 mmHg 91%
05:00 +19°C° 0.3 mm 1 mps 750 mmHg 90%
06:00 +19°C° 0.3 mm 1 mps 750 mmHg 90%
07:00 +19°C° 0.1 mm 1 mps 750 mmHg 89%
08:00 +19°C° 0.1 mm 1 mps 750 mmHg 87%
09:00 +19°C° 0.1 mm 1 mps 750 mmHg 86%
10:00 +20°C° 0 mm 1 mps 750 mmHg 81%
11:00 +20°C° 0 mm 2 mps 750 mmHg 76%
12:00 +21°C° 0 mm 2 mps 750 mmHg 71%
13:00 +23°C° 0 mm 2 mps 750 mmHg 62%
14:00 +25°C° 0 mm 3 mps 749 mmHg 52%
15:00 +27°C° 0 mm 3 mps 749 mmHg 43%
16:00 +26°C° 0 mm 3 mps 749 mmHg 44%
17:00 +26°C° 0 mm 3 mps 749 mmHg 44%
18:00 +26°C° 0 mm 3 mps 749 mmHg 45%
19:00 +24°C° 0 mm 2 mps 749 mmHg 50%
20:00 +21°C° 0 mm 2 mps 749 mmHg 55%
21:00 +20°C° 0 mm 2 mps 749 mmHg 60%
22:00 +19°C° 0 mm 2 mps 748 mmHg 62%
23:00 +19°C° 0 mm 2 mps 748 mmHg 65%

29 July, Thursday

Time Temperature Precipitation Wind Pressure Humidity
00:00 +18°C° 0 mm 2 mps 748 mmHg 68%
01:00 +19°C° 0 mm 1 mps 747 mmHg 69%
02:00 +19°C° 0 mm 1 mps 747 mmHg 71%
03:00 +18°C° 0 mm 1 mps 747 mmHg 73%
04:00 +19°C° 0 mm 1 mps 747 mmHg 73%
05:00 +17°C° 0 mm 0 mps 747 mmHg 72%
06:00 +18°C° 0 mm 0 mps 747 mmHg 71%
07:00 +22°C° 0 mm 1 mps 747 mmHg 63%
08:00 +24°C° 0 mm 2 mps 747 mmHg 54%
09:00 +26°C° 0 mm 2 mps 747 mmHg 45%
10:00 +28°C° 0 mm 3 mps 747 mmHg 40%
11:00 +30°C° 0 mm 4 mps 746 mmHg 35%
12:00 +32°C° 0 mm 4 mps 746 mmHg 29%
13:00 +33°C° 0 mm 4 mps 746 mmHg 27%
14:00 +33°C° 0 mm 3 mps 745 mmHg 26%
15:00 +34°C° 0 mm 3 mps 745 mmHg 24%
16:00 +32°C° 0 mm 2 mps 745 mmHg 27%
17:00 +32°C° 0 mm 2 mps 745 mmHg 30%
18:00 +31°C° 0 mm 2 mps 744 mmHg 33%
19:00 +29°C° 0 mm 1 mps 745 mmHg 37%
20:00 +27°C° 0 mm 1 mps 745 mmHg 41%
21:00 +24°C° 0 mm 1 mps 745 mmHg 46%
22:00 +24°C° 0 mm 1 mps 745 mmHg 48%
23:00 +23°C° 0 mm 1 mps 745 mmHg 50%

30 July, Friday

Time Temperature Precipitation Wind Pressure Humidity
00:00 +22°C° 0 mm 1 mps 745 mmHg 53%
01:00 +21°C° 0 mm 2 mps 745 mmHg 55%
02:00 +20°C° 0 mm 2 mps 745 mmHg 58%
03:00 +20°C° 0 mm 2 mps 745 mmHg 60%
04:00 +20°C° 0 mm 2 mps 745 mmHg 62%
05:00 +22°C° 0 mm 1 mps 745 mmHg 63%
06:00 +22°C° 0 mm 1 mps 745 mmHg 65%
07:00 +24°C° 0 mm 1 mps 745 mmHg 57%
08:00 +27°C° 0 mm 1 mps 745 mmHg 48%
09:00 +29°C° 0 mm 1 mps 745 mmHg 40%
10:00 +30°C° 0 mm 2 mps 745 mmHg 34%
11:00 +32°C° 0 mm 2 mps 745 mmHg 29%
12:00 +34°C° 0 mm 3 mps 744 mmHg 23%
13:00 +35°C° 0 mm 3 mps 744 mmHg 22%
14:00 +35°C° 0 mm 3 mps 744 mmHg 20%
15:00 +36°C° 0 mm 3 mps 743 mmHg 19%
16:00 +35°C° 0 mm 3 mps 743 mmHg 22%
17:00 +35°C° 0 mm 2 mps 743 mmHg 25%
18:00 +34°C° 0 mm 2 mps 743 mmHg 27%
19:00 +31°C° 0 mm 2 mps 744 mmHg 31%
20:00 +29°C° 0 mm 3 mps 744 mmHg 35%
21:00 +26°C° 0 mm 3 mps 744 mmHg 38%
22:00 +25°C° 0 mm 3 mps 744 mmHg 42%
23:00 +25°C° 0 mm 3 mps 744 mmHg 46%
Show more